Weather History for Andover, NJ

Change the Weather History Date:

Friday, April 19, 2013

  Actual Average (KFWN) Record (KFWN)
Temperature  
Mean Temperature 66 °F -  
Max Temperature 75 °F 62 °F 92 °F (1976)
Min Temperature 52 °F 34 °F 24 °F (1988)
Cooling Degree Days 1    
Growing Degree Days 16 (Base 50)    
Moisture  
Dew Point 58 °F    
Average Humidity 77    
Maximum Humidity 93    
Minimum Humidity 60    
Precipitation  
Precipitation 0.86 in - - ()
Sea Level Pressure  
Sea Level Pressure 29.81 in    
Wind  
Wind Speed 7 mph (SSW)    
Max Wind Speed 14 mph    
Max Gust Speed 24 mph    
Averages and records for this station are not official NWS values.
T = Trace of Precipitation, MM = Missing Value Source: NWS Daily Summary

Daily Weather History Graph

Daily Weather History Graph

Search for Another Location

Airport:

Trip Planner

Search our weather history database for the weather conditions in past years. The results will help you decide how hot, cold, wet, or windy it might be!

Date:

Astronomy

Apr. 19, 2013 Rise Set
Actual Time 6:13 AM EDT 7:43 PM EDT
Civil Twilight 5:44 AM EDT 8:12 PM EDT
Nautical Twilight 5:09 AM EDT 8:47 PM EDT
Astronomical Twilight 4:33 AM EDT 9:24 PM EDT
Moon 1:22 PM EDT (4/19) 2:30 AM EDT (4/19)
Length of Visible Light 14h 27m
Length of Day
13h 29m
First Quarter, 61% of the Moon is Illuminated
Apr 19
First Quarter
Apr 25
Full
May 2
Last Quarter
May 9
New
May 18
First Quarter

Hourly Weather History & Observations

Time (EDT) Temp. Dew Point Humidity Pressure Visibility Wind Dir Wind Speed Gust Speed Precip Events Conditions
12:54 AM 57.0 °F 54.0 °F 89% 30.06 in - SW 6.9 mph - N/A   Unknown
1:54 AM 57.9 °F 55.0 °F 90% 30.03 in - Variable 5.8 mph - N/A   Unknown
2:54 AM 59.0 °F 55.9 °F 90% 29.99 in - South 8.1 mph - N/A   Unknown
3:54 AM 60.1 °F 55.9 °F 86% 29.97 in - SSW 5.8 mph - N/A   Unknown
4:54 AM 60.1 °F 55.9 °F 86% 29.96 in - Variable 4.6 mph - N/A   Unknown
5:54 AM 61.0 °F 55.9 °F 83% 29.94 in - Variable 6.9 mph - N/A   Unknown
6:54 AM 61.0 °F 57.0 °F 87% 29.95 in - SSW 8.1 mph - N/A   Unknown
7:54 AM 63.0 °F 57.0 °F 81% 29.93 in - SSW 9.2 mph 19.6 mph N/A   Unknown
8:54 AM 63.0 °F 57.0 °F 81% 29.92 in - Variable 5.8 mph 17.3 mph N/A   Unknown
9:54 AM 64.0 °F 57.9 °F 80% 29.88 in - South 6.9 mph 16.1 mph N/A   Unknown
10:54 AM 64.0 °F 59.0 °F 84% 29.86 in - South 9.2 mph 18.4 mph N/A   Unknown
11:54 AM 66.0 °F 59.0 °F 78% 29.83 in - South 9.2 mph 17.3 mph N/A   Unknown
12:54 PM 68.0 °F 60.1 °F 76% 29.81 in - SSW 8.1 mph - N/A   Unknown
1:54 PM 72.0 °F 60.1 °F 66% 29.76 in - SSW 9.2 mph 20.7 mph N/A   Unknown
2:54 PM 75.0 °F 60.1 °F 60% 29.72 in - Variable 6.9 mph 21.9 mph N/A   Unknown
3:54 PM 73.9 °F 60.1 °F 62% 29.68 in - South 9.2 mph 19.6 mph N/A   Unknown
4:54 PM 75.0 °F 60.1 °F 60% 29.63 in - South 11.5 mph 19.6 mph N/A   Unknown
5:54 PM 73.9 °F 60.1 °F 62% 29.63 in - South 8.1 mph 21.9 mph N/A   Unknown
6:54 PM 73.9 °F 60.1 °F 62% 29.60 in - South 12.7 mph 21.9 mph N/A   Unknown
7:54 PM 71.1 °F 61.0 °F 70% 29.59 in - South 13.8 mph 24.2 mph N/A   Unknown
8:54 PM 70.0 °F 62.1 °F 76% 29.60 in - SSW 9.2 mph - N/A   Unknown
9:54 PM 62.1 °F 60.1 °F 93% 29.66 in - SSW 3.5 mph - 0.51 in   Unknown
10:54 PM 59.0 °F 55.0 °F 87% 29.71 in - Variable 3.5 mph - 0.27 in   Unknown
11:54 PM 52.0 °F 42.1 °F 69% 29.75 in - Calm Calm - 0.08 in   Unknown